| time (UTC) | temp F | wind direction | speed knots | gust knots | rain 1hr in | rain 24hr in | rain mn in | humidity % | barometer mb |
| 20260507053713 | 74 | 192 | 1.7 | 4.3 | 0.00 | 0.01 | 0.00 | 72 | 992.8 |
| 20260507052713 | 75 | 204 | 1.7 | 3.5 | 0.00 | 0.01 | 0.00 | 71 | 993.0 |
| 20260507051713 | 75 | 230 | 1.7 | 4.3 | 0.00 | 0.01 | 0.00 | 71 | 993.2 |
| 20260507050713 | 75 | 286 | 1.7 | 5.2 | 0.00 | 0.01 | 0.00 | 70 | 993.4 |
| 20260507045710 | 75 | 240 | 1.7 | 6.1 | 0.00 | 0.01 | 0.00 | 70 | 993.5 |
| 20260507045143 | 75 | 137 | 2.6 | 5.2 | 0.00 | 0.01 | 0.00 | 69 | 993.5 |
| 20260507043710 | 75 | 180 | 1.7 | 4.3 | 0.00 | 0.01 | 0.00 | 69 | 993.5 |
| 20260507043148 | 75 | 179 | 1.7 | 4.3 | 0.00 | 0.01 | 0.00 | 69 | 993.5 |
| 20260507041711 | 75 | 195 | 1.7 | 5.2 | 0.00 | 0.01 | 0.00 | 69 | 993.6 |
| 20260507040708 | 75 | 172 | 1.7 | 4.3 | 0.00 | 0.01 | 0.00 | 68 | 993.5 |
| 20260507035708 | 75 | 160 | 1.7 | 6.1 | 0.00 | 0.01 | 0.01 | 68 | 993.8 |
| 20260507034707 | 76 | 252 | 1.7 | 3.5 | 0.00 | 0.01 | 0.01 | 68 | 993.7 |
| 20260507033708 | 76 | 164 | 1.7 | 4.3 | 0.00 | 0.01 | 0.01 | 67 | 993.6 |
| 20260507032708 | 76 | 170 | 1.7 | 3.5 | 0.00 | 0.01 | 0.01 | 67 | 993.2 |
| 20260507031709 | 76 | 221 | 1.7 | 3.5 | 0.00 | 0.01 | 0.01 | 67 | 993.1 |
| 20260507030709 | 76 | 215 | 1.7 | 3.5 | 0.00 | 0.01 | 0.01 | 67 | 993.1 |
| 20260507025705 | 76 | 222 | 1.7 | 3.5 | 0.00 | 0.01 | 0.01 | 67 | 992.9 |
| 20260507024705 | 76 | 188 | 0.9 | 4.3 | 0.00 | 0.01 | 0.01 | 68 | 993.0 |
| 20260507024200 | 76 | 137 | 0.9 | 4.3 | 0.00 | 0.01 | 0.01 | 68 | 993.1 |
| 20260507023140 | 76 | 183 | 0.9 | 3.5 | 0.00 | 0.01 | 0.01 | 68 | 992.9 |
| 20260507021705 | 76 | 212 | 1.7 | 3.5 | 0.00 | 0.01 | 0.01 | 67 | 993.0 |
| 20260507020704 | 76 | 180 | 0.9 | 4.3 | 0.00 | 0.01 | 0.01 | 68 | 992.8 |
| 20260507015704 | 77 | 0 | 0.9 | 3.5 | 0.00 | 0.01 | 0.01 | 69 | 993.1 |
| 20260507014704 | 77 | 145 | 1.7 | 5.2 | 0.00 | 0.01 | 0.01 | 69 | 993.4 |
| 20260507013705 | 77 | 226 | 1.7 | 4.3 | 0.00 | 0.01 | 0.01 | 68 | 993.7 |
| 20260507012704 | 78 | 200 | 2.6 | 7.0 | 0.00 | 0.01 | 0.01 | 66 | 993.8 |
| 20260507011704 | 78 | 217 | 3.5 | 7.8 | 0.00 | 0.01 | 0.01 | 64 | 993.9 |
| 20260507010705 | 78 | 216 | 2.6 | 7.8 | 0.00 | 0.01 | 0.01 | 63 | 993.4 |
| 20260507005705 | 78 | 105 | 2.6 | 7.8 | 0.00 | 0.01 | 0.01 | 62 | 993.7 |
| 20260507004705 | 78 | 148 | 2.6 | 7.8 | 0.00 | 0.01 | 0.01 | 63 | 993.3 |
| 20260507003705 | 79 | 112 | 3.5 | 7.8 | 0.00 | 0.01 | 0.01 | 62 | 993.4 |
| 20260507002705 | 79 | 118 | 3.5 | 7.8 | 0.00 | 0.01 | 0.01 | 62 | 993.2 |
| 20260507001702 | 80 | 301 | 3.5 | 8.7 | 0.00 | 0.01 | 0.01 | 61 | 993.4 |
| 20260507000701 | 80 | 159 | 3.5 | 10.4 | 0.00 | 0.01 | 0.01 | 61 | 993.4 |
| 20260507000138 | 80 | 167 | 3.5 | 7.8 | 0.00 | 0.01 | 0.01 | 61 | 993.5 |
| 20260506235138 | 81 | 130 | 4.3 | 9.6 | 0.00 | 0.01 | 0.01 | 61 | 993.6 |
| 20260506233702 | 81 | 74 | 5.2 | 10.4 | 0.00 | 0.01 | 0.01 | 61 | 993.9 |
| 20260506232702 | 82 | 102 | 5.2 | 10.4 | 0.00 | 0.01 | 0.01 | 61 | 994.1 |
| 20260506231702 | 82 | 93 | 5.2 | 11.3 | 0.00 | 0.01 | 0.01 | 59 | 994.5 |
| 20260506230659 | 83 | 165 | 4.3 | 8.7 | 0.00 | 0.01 | 0.01 | 61 | 994.6 |
| 20260506225657 | 83 | 117 | 4.3 | 11.3 | 0.00 | 0.01 | 0.01 | 62 | 995.0 |
| 20260506224657 | 83 | 107 | 4.3 | 8.7 | 0.00 | 0.01 | 0.01 | 62 | 996.7 |
| 20260506223657 | 84 | 116 | 5.2 | 11.3 | 0.00 | 0.01 | 0.01 | 62 | 997.5 |
| 20260506222658 | 84 | 88 | 4.3 | 8.7 | 0.00 | 0.01 | 0.01 | 61 | 998.1 |
| 20260506222142 | 85 | 85 | 5.2 | 10.4 | 0.00 | 0.01 | 0.01 | 60 | 998.2 |
| 20260506220657 | 85 | 195 | 5.2 | 9.6 | 0.00 | 0.01 | 0.01 | 61 | 998.6 |
| 20260506215657 | 85 | 166 | 4.3 | 8.7 | 0.00 | 0.01 | 0.01 | 59 | 999.1 |
| 20260506214656 | 85 | 113 | 5.2 | 7.8 | 0.00 | 0.01 | 0.01 | 62 | 999.0 |
| 20260506213656 | 85 | 104 | 4.3 | 9.6 | 0.00 | 0.01 | 0.01 | 63 | 999.5 |
| 20260506212656 | 85 | 165 | 5.2 | 9.6 | 0.00 | 0.01 | 0.01 | 63 | 999.9 |
| 20260506211656 | 85 | 105 | 5.2 | 10.4 | 0.00 | 0.01 | 0.01 | 63 | 1000.0 |
| 20260506210656 | 85 | 90 | 5.2 | 10.4 | 0.00 | 0.01 | 0.01 | 64 | 1000.2 |
| 20260506205656 | 85 | 71 | 5.2 | 9.6 | 0.00 | 0.01 | 0.01 | 63 | 1000.6 |
| 20260506204656 | 86 | 88 | 5.2 | 9.6 | 0.00 | 0.01 | 0.01 | 62 | 1000.5 |
| 20260506203656 | 86 | 87 | 3.5 | 7.8 | 0.00 | 0.01 | 0.01 | 60 | 1002.0 |
| 20260506202652 | 86 | 118 | 4.3 | 8.7 | 0.00 | 0.01 | 0.01 | 61 | 1001.7 |
| 20260506201705 | 85 | 86 | 4.3 | 8.7 | 0.00 | 0.01 | 0.01 | 61 | 1001.6 |
| 20260506200653 | 85 | 58 | 5.2 | 9.6 | 0.00 | 0.01 | 0.01 | 63 | 1001.3 |
| 20260506195653 | 86 | 65 | 4.3 | 7.8 | 0.00 | 0.01 | 0.01 | 61 | 1002.3 |
| 20260506194653 | 86 | 111 | 4.3 | 9.6 | 0.00 | 0.01 | 0.01 | 60 | 1003.2 |
| 20260506193653 | 87 | 39 | 4.3 | 7.8 | 0.00 | 0.01 | 0.01 | 60 | 1003.9 |
| 20260506192653 | 88 | 110 | 3.5 | 7.8 | 0.00 | 0.01 | 0.01 | 58 | 1005.0 |
| 20260506191653 | 88 | 76 | 3.5 | 7.8 | 0.00 | 0.01 | 0.01 | 58 | 1005.1 |
| 20260506190703 | 89 | 56 | 1.7 | 5.2 | 0.00 | 0.01 | 0.01 | 56 | 1006.8 |
| 20260506185650 | 89 | 257 | 2.6 | 5.2 | 0.00 | 0.01 | 0.01 | 48 | 1008.3 |
| 20260506184650 | 89 | 200 | 2.6 | 5.2 | 0.00 | 0.01 | 0.01 | 48 | 1008.4 |
| 20260506184130 | 89 | 199 | 2.6 | 5.2 | 0.00 | 0.01 | 0.01 | 48 | 1009.5 |
| 20260506182651 | 89 | 296 | 2.6 | 6.1 | 0.00 | 0.01 | 0.01 | 47 | 1009.0 |
| 20260506181704 | 88 | 197 | 2.6 | 6.1 | 0.00 | 0.01 | 0.01 | 50 | 1008.6 |
| 20260506180651 | 88 | 157 | 3.5 | 7.0 | 0.00 | 0.01 | 0.01 | 49 | 1008.5 |
| 20260506175651 | 89 | 178 | 2.6 | 6.1 | 0.00 | 0.01 | 0.01 | 50 | 1009.3 |
| 20260506173649 | 87 | 186 | 3.5 | 7.8 | 0.00 | 0.01 | 0.01 | 51 | 1009.4 |
| 20260506172649 | 87 | 165 | 3.5 | 7.8 | 0.00 | 0.01 | 0.01 | 52 | 1008.6 |
| 20260506172135 | 86 | 209 | 3.5 | 8.7 | 0.00 | 0.01 | 0.01 | 54 | 1008.3 |
| 20260506170649 | 87 | 210 | 4.3 | 8.7 | 0.00 | 0.01 | 0.01 | 54 | 1008.0 |
| 20260506165647 | 86 | 190 | 3.5 | 7.8 | 0.00 | 0.01 | 0.01 | 52 | 1009.3 |
| 20260506163644 | 86 | 232 | 3.5 | 7.8 | 0.00 | 0.01 | 0.01 | 54 | 1008.1 |
| 20260506162641 | 86 | 230 | 3.5 | 7.8 | 0.00 | 0.01 | 0.01 | 56 | 1008.3 |
| 20260506161654 | 85 | 278 | 3.5 | 7.8 | 0.00 | 0.01 | 0.01 | 55 | 1008.8 |
| 20260506160653 | 85 | 201 | 3.5 | 7.8 | 0.00 | 0.01 | 0.01 | 56 | 1009.0 |
| 20260506155654 | 85 | 267 | 3.5 | 7.8 | 0.00 | 0.01 | 0.01 | 57 | 1008.7 |
| 20260506154641 | 84 | 190 | 3.5 | 7.8 | 0.00 | 0.01 | 0.01 | 59 | 1008.6 |
| 20260506153641 | 83 | 105 | 4.3 | 7.8 | 0.00 | 0.01 | 0.01 | 58 | 1007.4 |
| 20260506152639 | 83 | 120 | 3.5 | 8.7 | 0.00 | 0.01 | 0.01 | 59 | 1007.8 |
| 20260506151638 | 83 | 151 | 3.5 | 7.0 | 0.00 | 0.01 | 0.01 | 59 | 1007.9 |
| 20260506150638 | 82 | 161 | 3.5 | 8.7 | 0.00 | 0.01 | 0.01 | 60 | 1007.0 |
| 20260506145638 | 81 | 193 | 4.3 | 7.8 | 0.00 | 0.01 | 0.01 | 61 | 1005.9 |
| 20260506144639 | 81 | 186 | 3.5 | 7.8 | 0.00 | 0.01 | 0.01 | 62 | 1005.3 |
| 20260506143639 | 80 | 202 | 3.5 | 7.8 | 0.00 | 0.01 | 0.01 | 62 | 1004.9 |
| 20260506142639 | 80 | 224 | 4.3 | 10.4 | 0.00 | 0.01 | 0.01 | 62 | 1004.6 |
| 20260506141639 | 79 | 186 | 5.2 | 10.4 | 0.00 | 0.01 | 0.01 | 63 | 1004.8 |
| 20260506140637 | 79 | 197 | 4.3 | 8.7 | 0.00 | 0.01 | 0.01 | 66 | 1004.6 |
| 20260506134634 | 78 | 163 | 3.5 | 7.8 | 0.00 | 0.01 | 0.01 | 70 | 1003.6 |
| 20260506133633 | 77 | 165 | 3.5 | 7.8 | 0.00 | 0.01 | 0.01 | 70 | 1002.8 |
| 20260506132633 | 76 | 191 | 3.5 | 7.8 | 0.00 | 0.01 | 0.01 | 72 | 1002.5 |
| 20260506131634 | 76 | 180 | 4.3 | 9.6 | 0.00 | 0.01 | 0.01 | 73 | 1001.6 |
| 20260506130634 | 75 | 173 | 3.5 | 8.7 | 0.00 | 0.01 | 0.01 | 74 | 1001.4 |
| 20260506130116 | 74 | 203 | 2.6 | 7.0 | 0.00 | 0.01 | 0.01 | 76 | 1000.5 |
| 20260506124635 | 73 | 206 | 2.6 | 5.2 | 0.00 | 0.01 | 0.01 | 77 | 1000.3 |
| 20260506123632 | 72 | 280 | 2.6 | 6.1 | 0.00 | 0.01 | 0.01 | 78 | 999.2 |
| 20260506122633 | 71 | 244 | 2.6 | 5.2 | 0.00 | 0.01 | 0.01 | 80 | 998.3 |
| 20260506121632 | 70 | 100 | 1.7 | 5.2 | 0.00 | 0.01 | 0.01 | 82 | 997.1 |
| 20260506120633 | 68 | 217 | 1.7 | 3.5 | 0.00 | 0.01 | 0.01 | 85 | 995.3 |
| 20260506115632 | 68 | 198 | 1.7 | 3.5 | 0.00 | 0.01 | 0.01 | 87 | 994.8 |
| 20260506114632 | 67 | 305 | 1.7 | 3.5 | 0.00 | 0.01 | 0.01 | 88 | 993.5 |
| 20260506113630 | 67 | 218 | 1.7 | 4.3 | 0.00 | 0.01 | 0.01 | 89 | 992.8 |
| 20260506112627 | 66 | 213 | 2.6 | 4.3 | 0.00 | 0.01 | 0.01 | 90 | 991.7 |
| 20260506110628 | 65 | 196 | 1.7 | 3.5 | 0.00 | 0.01 | 0.01 | 91 | 990.1 |
| 20260506105628 | 64 | 221 | 1.7 | 3.5 | 0.00 | 0.01 | 0.01 | 91 | 989.3 |
| 20260506104628 | 64 | 221 | 0.9 | 1.7 | 0.00 | 0.01 | 0.01 | 91 | 988.9 |
| 20260506103628 | 64 | 217 | 0.9 | 1.7 | 0.00 | 0.01 | 0.01 | 91 | 988.7 |
| 20260506102628 | 64 | 190 | 0.9 | 1.7 | 0.00 | 0.01 | 0.01 | 92 | 988.5 |
| 20260506101625 | 64 | 199 | 0.9 | 1.7 | 0.00 | 0.01 | 0.01 | 91 | 988.3 |
| 20260506100621 | 64 | 259 | 0.9 | 1.7 | 0.01 | 0.01 | 0.01 | 91 | 988.6 |
| 20260506100052 | 64 | 220 | 0.9 | 1.7 | 0.01 | 0.01 | 0.01 | 92 | 988.5 |
| 20260506094622 | 63 | 349 | 0.0 | 1.7 | 0.01 | 0.01 | 0.01 | 91 | 988.2 |
| 20260506093621 | 63 | 336 | 0.0 | 1.7 | 0.01 | 0.01 | 0.01 | 90 | 987.8 |
| 20260506092621 | 64 | 26 | 2.6 | 7.8 | 0.01 | 0.01 | 0.01 | 90 | 988.3 |
| 20260506092102 | 64 | 34 | 0.9 | 6.1 | 0.01 | 0.01 | 0.01 | 89 | 989.5 |
| 20260506090622 | 64 | 0 | 1.7 | 5.2 | 0.00 | 0.00 | 0.00 | 89 | 989.0 |
| 20260506085619 | 64 | 56 | 0.9 | 4.3 | 0.00 | 0.00 | 0.00 | 88 | 987.6 |
| 20260506084619 | 64 | 37 | 0.9 | 3.5 | 0.00 | 0.00 | 0.00 | 88 | 988.1 |
| 20260506083620 | 64 | 40 | 0.0 | 1.7 | 0.00 | 0.00 | 0.00 | 88 | 987.6 |
| 20260506082619 | 64 | 35 | 0.0 | 1.7 | 0.00 | 0.00 | 0.00 | 88 | 987.6 |
| 20260506081619 | 64 | 36 | 0.0 | 1.7 | 0.00 | 0.00 | 0.00 | 87 | 987.7 |
| 20260506080620 | 65 | 289 | 0.9 | 2.6 | 0.00 | 0.00 | 0.00 | 86 | 989.2 |
| 20260506072618 | 64 | 0 | 0.0 | 1.7 | 0.00 | 0.00 | 0.00 | 82 | 987.4 |
| 20260506071618 | 64 | 173 | 0.0 | 1.7 | 0.00 | 0.00 | 0.00 | 82 | 987.3 |
| 20260506070614 | 65 | 0 | 0.0 | 0.9 | 0.00 | 0.00 | 0.00 | 82 | 987.4 |
| 20260506061615 | 65 | 210 | 0.0 | 1.7 | 0.00 | 0.00 | 0.00 | 83 | 987.9 |
| 20260506060615 | 65 | 0 | 0.0 | 0.9 | 0.00 | 0.00 | 0.00 | 83 | 988.0 |